Weather Roundup
Issued by NWS

Home | Current Version | Previous Version | Graphics & Text | Print | Product List | Glossary Off
Versions: 1 2 3 4 5 6 7 8 9 10 11 12 13 14 15 16 17 18 19 20 21 22 23 24 25 26 27 28 29 30 31 32 33 34 35 36 37 38 39 40 41 42 43 44 45 46 47 48 49 50

000
NZUS93 KARX 212110
HRRWXR

CURRENT HOURLY OBSERVATIONS ACROSS
MUCH OF THE UPPER MISSISSIPPI VALLEY
NATIONAL WEATHER SERVICE LA CROSSE WI
400 PM CDT SAT OCT 21 2017


...SOUTHEAST MINNESOTA...


CITY           SKY/WX    TMP DP  RH WIND       PRES   REMARKS
ROCHESTER      CLOUDY    66  59  78 S22G29    29.77S
ROCHESTER/MAYO CLOUDY    66  59  77 S16G28    29.76S
WINONA         CLOUDY    70  59  68 S7G20     29.80R
AUSTIN         CLOUDY    66  57  72 S13G21    29.75S
ALBERT LEA     NOT AVBL
DODGE CENTER   CLOUDY    64  57  77 S18G26    29.74F
PRESTON        CLOUDY    66  57  72 S16G22    29.80S
OWATONNA       MOSUNNY   66  61  82 SE20G32   29.70F
FARIBAULT      MOSUNNY   68  61  77 S22G33    29.68F
$$

...ELSEWHERE IN MINNESOTA...


CITY           SKY/WX    TMP DP  RH WIND       PRES   REMARKS
MINNEAPOLIS    CLOUDY    68  61  78 S23G38    29.65F
INTNL FALLS    CLOUDY    63  56  78 S6G16     29.53S
DULUTH         DRIZZLE   59  59 100 S15       29.65F FOG
RED WING       CLOUDY    68  57  68 S17       29.72R
REDWOOD FALLS  CLOUDY    59  51  75 W22       29.61R
MANKATO        CLOUDY    68  61  78 S18G29    29.63F
WORTHINGTON    NOT AVBL
FAIRMONT       PTSUNNY   69  62  78 S20G32    29.64R
$$

...SOUTHWEST WISCONSIN...


CITY           SKY/WX    TMP DP  RH WIND       PRES   REMARKS
LA CROSSE      CLOUDY    70  58  65 CALM      29.80F
PRAIRIE DU CHI CLOUDY    77  56  48 S7        29.82R
BOSCOBEL       CLOUDY    78  58  49 S10G17    29.84R
LONE ROCK      CLOUDY    77  60  55 S21G29    29.86R
PLATTEVILLE    SUNNY     77  60  54 S17G30    29.88R
FORT MC COY    CLOUDY    71  59  65 W3        29.82F
CAMP DOUGLAS   SUNNY     76  59  56 S12G21    29.83S
MAUSTON-NEW LI MOCLDY   N/A N/A N/A S12G20    29.83S
VIROQUA        CLOUDY    72  59  64 S13       29.84S
WIS DELLS      MOSUNNY   75  57  53 S14G24    29.87R
$$

...ELSEWHERE IN WISCONSIN...


CITY           SKY/WX    TMP DP  RH WIND       PRES   REMARKS
MILWAUKEE      MOSUNNY   74  57  55 SE17      29.94F
MADISON        PTSUNNY   76  57  51 S20G28    29.88S
GREEN BAY      SUNNY     72  57  59 SE14      29.88F
EAU CLAIRE     CLOUDY    67  58  72 S22G28    29.76S
BLACK RVR FLS  MOCLDY    71  55  56 S6        29.81S
MEDFORD        CLOUDY    64  56  75 S14G20    29.84R
WAUSAU         CLOUDY    71  56  58 S13       29.83F
WIS RAPIDS     CLOUDY    74  58  57 S9        29.85S
MARSHFIELD     CLOUDY    68  56  65 SW7       29.83F
RICE LAKE      CLOUDY    66  58  76 S16G25    29.74S
$$

...NORTHEAST IOWA...


CITY           SKY/WX    TMP DP  RH WIND       PRES   REMARKS
WATERLOO       CLOUDY    71  59  65 S17G24    29.80F
DUBUQUE        CLOUDY    75  59  57 S15G25    29.87R
DECORAH        CLOUDY    70  59  68 S6        29.81S
MASON CITY     CLOUDY    68  60  75 S22G29    29.74F
CHARLES CITY   CLOUDY    70  59  68 S18G26    29.78F
OELWEIN        CLOUDY    72  61  68 SW18      29.84R
$$

...ELSEWHERE IN IOWA...


CITY           SKY/WX    TMP DP  RH WIND       PRES   REMARKS
DES MOINES     PTSUNNY   74  62  66 S22       29.75F
IOWA CITY      CLOUDY    79  61  53 S15       29.86R
FORT DODGE     CLOUDY    70  62  76 S21G32    29.70S
MARSHALLTOWN   CLOUDY    72  61  68 S20G26    29.78F
CEDAR RAPIDS   CLOUDY    76  61  59 S9        29.83R
$$

...NORTHERN ILLINOIS...


CITY           SKY/WX    TMP DP  RH WIND       PRES   REMARKS
CHICAGO-OHARE  PTSUNNY   76  57  51 S17G28    29.97F
CHICAGO-MIDWAY PTSUNNY   78  58  49 S17G25    29.99S
MOLINE         MOSUNNY   79  59  50 S16       29.87S
ROCKFORD       MOSUNNY   78  55  44 S16G25    29.94S
PEORIA         MOSUNNY   76  61  59 S16G32    29.94S
$$

NOTE: "FAIR" INDICATES FEW OR NO CLOUDS BELOW 12,000 FEET WITH NO
SIGNIFICANT WEATHER AND/OR OBSTRUCTIONS TO VISIBILITY. WIND
SPEEDS ARE IN MILES-PER-HOUR.




USA.gov is the U.S. government's official web portal to all federal, state and local government web resources and services.